EW4258 Weather Reports


Display with metric or nautical units.
time (UTC)temp
F
wind
direction
speed
MPH
gust
MPH
rain 1hr
in
rain 24hr
in
rain mn
in
humidity
%
barometer
mb
20260510221110 55 67 0.0 0.0 0.00 0.00 0.00 47 1008.5
20260510220114 56 90 0.0 0.0 0.00 0.00 0.00 46 1008.4
20260510215114 57 45 0.0 1.0 0.00 0.00 0.00 45 1008.4
20260510213113 58 202 0.0 1.0 0.00 0.00 0.00 45 1008.4
20260510212113 58 337 0.0 0.0 0.00 0.00 0.00 44 1008.4
20260510211115 59 157 2.0 2.0 0.00 0.00 0.00 43 1008.4
20260510210113 59 157 1.0 3.0 0.00 0.00 0.00 44 1008.5
20260510204113 59 202 0.0 0.0 0.00 0.00 0.00 44 1008.6
20260510203115 60 135 0.0 0.0 0.00 0.00 0.00 44 1008.6
20260510202113 60 135 1.0 0.0 0.00 0.00 0.00 43 1008.5
20260510201113 60 135 0.0 2.0 0.00 0.00 0.00 43 1008.5
20260510200114 61 157 1.0 3.0 0.00 0.00 0.00 43 1008.5
20260510194113 62 270 0.0 0.0 0.00 0.00 0.00 41 1008.5
20260510193113 63 270 0.0 0.0 0.00 0.00 0.00 39 1008.5
20260510192113 64 90 1.0 1.0 0.00 0.00 0.00 38 1008.4
20260510191112 65 360 1.0 0.0 0.00 0.00 0.00 38 1008.4
20260510190112 65 135 1.0 1.0 0.00 0.00 0.00 37 1008.2
20260510185112 66 135 0.0 0.0 0.00 0.00 0.00 36 1008.2
20260510184112 66 202 1.0 0.0 0.00 0.00 0.00 35 1008.1
20260510183113 67 202 2.0 2.0 0.00 0.00 0.00 35 1008.1
20260510182112 67 225 3.0 2.0 0.00 0.00 0.00 35 1008.2
20260510181112 68 180 2.0 5.0 0.00 0.00 0.00 35 1008.2
20260510180112 68 112 2.0 2.0 0.00 0.00 0.00 34 1008.2
20260510175112 69 180 4.0 3.0 0.00 0.00 0.00 34 1008.2
20260510174112 69 225 3.0 6.0 0.00 0.00 0.00 34 1008.1
20260510173112 70 157 2.0 3.0 0.00 0.00 0.00 34 1008.1
20260510171113 70 135 2.0 4.0 0.00 0.00 0.00 34 1008.1
20260510170111 70 135 1.0 1.0 0.00 0.00 0.00 33 1008.2
20260510165113 71 202 2.0 0.0 0.00 0.00 0.00 33 1008.2
20260510164111 71 157 3.0 4.0 0.00 0.00 0.00 33 1008.4
20260510163111 71 157 3.0 4.0 0.00 0.00 0.00 32 1008.4
20260510162111 71 135 3.0 4.0 0.00 0.00 0.00 32 1008.3
20260510155112 72 135 3.0 4.0 0.00 0.00 0.00 33 1008.5
20260510154111 73 225 3.0 4.0 0.00 0.00 0.00 33 1008.2
20260510153111 74 292 3.0 5.0 0.00 0.00 0.00 33 1008.2
20260510152111 74 112 4.0 7.0 0.00 0.00 0.00 32 1008.1
20260510151111 75 135 4.0 5.0 0.00 0.00 0.00 31 1008.1
20260510150110 75 90 4.0 5.0 0.00 0.00 0.00 32 1008.1
20260510145110 76 135 2.0 6.0 0.00 0.00 0.00 32 1008.1
20260510143110 76 67 3.0 5.0 0.00 0.00 0.00 32 1008.5
20260510142113 75 67 2.0 8.0 0.00 0.00 0.00 31 1008.6
20260510141111 75 135 2.0 6.0 0.00 0.00 0.00 32 1008.6
20260510140111 75 45 3.0 4.0 0.00 0.00 0.00 32 1009.1
20260510134110 75 202 3.0 4.0 0.00 0.00 0.00 34 1009.3
20260510133115 75 135 4.0 5.0 0.00 0.00 0.00 33 1009.3
20260510131114 75 135 3.0 6.0 0.00 0.00 0.00 35 1009.5
20260510130114 75 292 3.0 2.0 0.00 0.00 0.00 35 1009.5
20260510125118 75 112 3.0 2.0 0.00 0.00 0.00 37 1009.5
20260510124118 74 135 2.0 4.0 0.00 0.00 0.00 37 1009.9
20260510123114 74 202 1.0 0.0 0.00 0.00 0.00 39 1009.9
20260510122114 73 135 1.0 2.0 0.00 0.00 0.00 39 1010.1
20260510121115 72 135 1.0 4.0 0.00 0.00 0.00 39 1010.1
20260510120114 72 135 2.0 2.0 0.00 0.00 0.00 42 1010.3
20260510115114 72 180 1.0 2.0 0.00 0.00 0.00 45 1010.3
20260510114114 71 157 1.0 2.0 0.00 0.00 0.00 47 1010.6
20260510113114 70 180 1.0 2.0 0.00 0.00 0.00 47 1010.6
20260510112113 69 202 1.0 1.0 0.00 0.00 0.00 46 1010.9
20260510111114 69 202 2.0 2.0 0.00 0.00 0.00 47 1010.9
20260510105113 67 45 0.0 0.0 0.00 0.00 0.00 48 1011.5
20260510104113 66 112 1.0 2.0 0.00 0.00 0.00 50 1011.8
20260510103113 65 157 1.0 0.0 0.00 0.00 0.00 51 1011.8
20260510101113 63 135 2.0 2.0 0.00 0.00 0.00 53 1011.8
20260510100113 63 135 1.0 0.0 0.00 0.00 0.00 53 1011.9
20260510095113 62 202 2.0 3.0 0.00 0.00 0.00 54 1011.9
20260510094113 62 225 1.0 2.0 0.00 0.00 0.00 54 1012.3
20260510093113 61 112 1.0 0.0 0.00 0.00 0.00 54 1012.3
20260510092113 60 202 1.0 2.0 0.00 0.00 0.00 55 1012.6
20260510091112 60 157 1.0 2.0 0.00 0.00 0.00 56 1012.6
20260510090113 59 45 1.0 0.0 0.00 0.00 0.00 58 1013.0
20260510085112 58 247 1.0 0.0 0.00 0.00 0.00 60 1013.0
20260510084112 58 135 1.0 2.0 0.00 0.00 0.00 61 1013.2
20260510083112 56 247 1.0 2.0 0.00 0.00 0.00 62 1013.2
20260510082112 55 157 0.0 0.0 0.00 0.00 0.00 62 1013.4
20260510081112 54 202 0.0 0.0 0.00 0.00 0.00 63 1013.4
20260510080112 54 247 1.0 2.0 0.00 0.00 0.00 63 1013.6
20260510075112 54 247 0.0 0.0 0.00 0.00 0.00 66 1013.6
20260510073112 53 225 2.0 3.0 0.00 0.00 0.00 67 1013.8
20260510072113 52 247 0.0 2.0 0.00 0.00 0.00 67 1014.2
20260510071112 51 45 1.0 1.0 0.00 0.00 0.00 66 1014.2
20260510070112 51 270 0.0 1.0 0.00 0.00 0.00 67 1014.5
20260510065112 51 202 0.0 0.0 0.00 0.00 0.00 71 1014.5
20260510064111 49 202 0.0 0.0 0.00 0.00 0.00 72 1015.0
20260510063111 47 45 1.0 1.0 0.00 0.00 0.00 74 1015.0
20260510061112 45 225 0.0 0.0 0.00 0.00 0.00 75 1015.1
20260510060111 45 135 0.0 0.0 0.00 0.00 0.00 76 1014.8
20260510055112 44 135 0.0 1.0 0.00 0.00 0.00 75 1014.8
20260510053111 43 135 0.0 1.0 0.00 0.00 0.00 74 1015.4
20260510052111 42 157 1.0 1.0 0.00 0.00 0.00 73 1015.3
20260510051111 42 67 1.0 1.0 0.00 0.00 0.00 73 1015.3
20260510050111 41 157 0.0 0.0 0.00 0.00 0.00 73 1015.8
20260510044111 40 67 1.0 2.0 0.00 0.00 0.00 71 1015.8
20260510043111 40 157 0.0 0.0 0.00 0.00 0.00 70 1015.8
20260510042111 40 157 0.0 0.0 0.00 0.00 0.00 69 1015.8
20260510040111 39 225 1.0 0.0 0.00 0.00 0.00 69 1015.8
20260510034113 40 135 0.0 0.0 0.00 0.00 0.00 69 1015.9
20260510033114 40 112 0.0 0.0 0.00 0.00 0.00 69 1015.9
20260510031113 40 67 1.0 0.0 0.00 0.00 0.00 68 1016.0
20260510030114 40 45 1.0 2.0 0.00 0.00 0.00 69 1016.0
20260510025112 40 202 0.0 0.0 0.00 0.00 0.00 69 1016.0
20260510024112 40 112 0.0 0.0 0.00 0.00 0.00 69 1016.2
20260510023112 41 90 0.0 0.0 0.00 0.00 0.00 69 1016.2
20260510022112 41 45 0.0 0.0 0.00 0.00 0.00 69 1016.3
20260510021112 41 67 0.0 0.0 0.00 0.00 0.00 69 1016.3
20260510020112 41 67 0.0 1.0 0.00 0.00 0.00 69 1016.4
20260510015112 41 360 0.0 0.0 0.00 0.00 0.00 69 1016.4
20260510014113 41 157 0.0 0.0 0.00 0.00 0.00 68 1016.4
20260510013113 41 67 0.0 1.0 0.00 0.00 0.00 69 1016.4
20260510012112 42 90 0.0 0.0 0.00 0.00 0.00 68 1016.5
20260510011111 42 90 0.0 0.0 0.00 0.00 0.00 69 1016.5
20260510010111 42 45 0.0 0.0 0.00 0.00 0.00 70 1016.6
20260510005111 42 90 0.0 0.0 0.00 0.00 0.00 69 1016.6
20260510004111 42 135 0.0 0.0 0.00 0.00 0.00 69 1016.8
20260510003111 43 157 0.0 0.0 0.00 0.00 0.00 69 1016.8
20260510002111 43 67 0.0 0.0 0.00 0.00 0.00 69 1016.9
20260510001111 43 67 0.0 0.0 0.00 0.00 0.00 70 1016.9
20260510000111 44 90 0.0 0.0 0.00 0.00 0.00 70 1016.9
20260509233111 44 67 0.0 0.0 0.00 0.00 0.00 70 1017.2
20260509232111 44 22 0.0 0.0 0.00 0.00 0.00 69 1017.2
20260509230110 45 90 0.0 1.0 0.00 0.00 0.00 70 1017.3
20260509225110 45 135 0.0 0.0 0.00 0.00 0.00 70 1017.3
20260509224110 45 360 0.0 0.0 0.00 0.00 0.00 70 1017.3
20260509223112 46 45 0.0 0.0 0.00 0.00 0.00 70 1017.3
20260509222110 46 67 0.0 0.0 0.00 0.00 0.00 70 1017.2